Theta_e
291 290 289 289 288 288 288 287 287 287 286 286 285 285 285 285 286 286 286 287 286 286 287 287 287 289 289 289 289 288 287 286 283 284 286 285 284 283 283 284 284 282 282
291 290 289 288 288 287 286 286 287 286 286 285 285 284 284 284 285 285 284 285 285 285 286 286 286 287 287 288 288 287 287 287 284 280 284 283 282 283 283 282 283 282 281
290 289 288 287 287 286 286 286 286 286 285 285 284 283 283 283 284 284 284 284 284 285 285 285 285 286 286 287 287 286 285 286 285 283 281 283 282 282 282 282 281 280 281
290 289 287 287 287 286 286 285 285 285 285 284 284 283 283 283 283 283 283 283 283 284 284 285 284 284 284 285 285 285 284 284 284 283 281 280 280 280 280 280 278 281 278
289 288 287 287 287 286 285 285 285 285 284 285 284 283 283 283 282 283 283 283 283 283 283 283 282 282 283 284 283 282 282 281 280 280 278 278 277 276 276 279 277 278 279
289 288 288 287 286 285 285 285 284 284 284 284 284 284 284 283 283 282 283 281 281 281 281 282 282 282 282 282 282 282 281 278 277 277 277 275 274 275 277 278 277 276 274
289 288 287 286 285 285 285 284 283 283 283 283 283 284 284 283 283 282 282 281 281 280 281 280 280 280 282 280 280 280 280 281 280 278 276 275 274 275 277 277 277 276 275
289 287 286 285 284 284 284 283 283 283 283 283 283 283 283 283 283 282 281 281 281 280 280 280 280 280 279 279 277 276 276 277 278 278 277 276 277 277 277 279 278 279 278
288 287 286 285 284 284 283 283 283 283 283 282 283 283 283 283 283 282 281 280 280 280 280 281 281 279 279 279 277 276 276 275 277 278 278 279 279 279 278 277 275 275 275
289 287 286 285 284 283 283 283 283 283 282 282 282 283 284 283 284 283 282 281 279 279 280 280 281 280 280 279 277 277 275 274 275 275 275 276 276 276 277 274 274 274 273
289 287 286 285 284 284 284 283 283 282 282 281 281 282 283 284 284 284 283 281 280 279 279 279 280 280 280 280 279 276 275 275 276 276 276 275 275 274 273 273 273 272 271
288 286 284 284 284 283 283 283 282 282 281 280 281 281 282 283 284 285 284 283 282 280 279 279 279 279 279 278 278 277 276 277 277 276 275 273 272 271 272 272 271 272 272
285 283 283 283 283 283 283 281 281 281 281 280 280 280 281 282 282 285 285 284 282 280 280 280 280 278 277 277 276 275 274 276 275 274 272 271 271 270 270 270 270 268 267
283 282 282 282 282 282 282 282 282 281 280 280 280 280 281 281 281 283 283 282 281 279 279 277 277 276 275 273 272 274 274 273 273 273 271 271 271 271 270 270 270 270 270
284 283 283 283 282 282 281 282 282 282 282 281 281 282 281 280 281 283 283 281 279 279 276 275 273 273 273 273 272 270 272 272 272 271 271 271 271 271 269 268 267 270 267
284 284 284 283 283 282 281 281 284 284 284 285 285 284 283 284 285 285 285 284 282 281 273 273 273 274 274 274 273 272 271 267 270 270 270 270 269 269 269 269 268 267 266
285 285 285 284 283 282 281 281 280 282 285 284 285 285 285 284 285 285 285 284 283 280 274 275 275 275 275 275 274 273 271 270 264 268 269 268 268 267 266 268 267 267 266
284 285 285 285 284 283 282 281 282 281 279 280 284 284 285 285 285 285 285 284 280 279 274 275 275 276 275 274 273 272 271 267 266 268 268 267 266 268 267 267 266 264 266
284 285 285 285 284 284 283 282 282 282 281 281 281 283 283 285 284 285 285 281 279 277 276 275 276 276 276 275 274 273 271 270 269 268 267 265 265 266 266 265 263 259 259
284 284 285 285 284 284 283 282 282 281 281 281 281 280 282 282 281 281 282 282 280 279 279 277 276 277 276 274 274 272 271 268 267 267 267 266 266 265 265 263 263 264 263
285 285 284 285 284 284 283 282 282 281 281 282 282 282 283 281 280 280 281 282 281 281 280 279 277 276 275 274 273 271 270 269 268 267 268 267 265 264 264 264 263 261 261
285 285 285 284 284 284 284 283 283 282 282 281 282 283 284 282 282 281 282 282 283 283 282 281 278 277 276 274 273 272 270 270 268 268 268 267 265 265 264 263 262 261 260
284 284 285 285 285 284 284 284 283 282 282 282 282 282 282 282 282 282 282 283 283 283 283 282 279 278 277 275 274 273 271 271 271 270 268 266 265 265 264 263 262 261 260
283 283 284 284 285 284 284 283 283 283 283 282 282 282 282 282 282 282 283 283 284 284 284 282 280 279 277 275 274 274 274 273 272 270 269 267 265 264 264 264 265 263 261
284 283 283 283 284 284 284 283 283 283 283 282 282 282 283 282 282 283 283 284 284 284 284 283 280 279 276 274 274 273 273 273 272 270 269 268 267 265 265 264 262 260 259
282 283 283 283 283 284 284 283 283 283 283 283 283 283 283 282 282 283 283 283 283 283 283 282 280 279 277 275 274 273 273 273 270 269 268 268 267 265 264 264 262 261 260
Wind_Speed
8 7 7 6 6 6 6 6 6 5 6 5 4 5 5 5 7 7 6 7 7 6 6 7 7 6 5 5 4 5 6 6 5 4 3 7 7 11 11 10 9 14 13
9 8 8 8 7 6 6 6 6 6 6 4 5 5 5 5 6 6 7 6 7 7 7 8 7 6 7 7 6 7 6 6 5 7 3 7 7 10 9 10 7 8 11
9 9 8 8 7 7 7 7 5 6 7 3 5 5 4 5 6 6 6 6 6 7 7 8 8 8 7 6 6 6 7 6 5 4 5 6 7 9 11 9 8 5 10
11 11 10 10 9 8 7 6 6 5 7 4 5 3 3 5 5 4 4 4 5 6 6 7 8 9 9 9 7 8 6 6 5 5 5 6 6 8 7 10 10 6 10
12 12 11 10 9 8 8 7 7 6 5 5 5 5 3 4 3 4 4 3 4 5 5 5 7 7 10 12 7 8 8 6 6 6 6 6 8 8 10 8 8 8 4
13 11 10 11 10 10 9 8 8 7 6 6 6 5 3 4 6 4 4 3 3 4 3 4 5 4 5 10 13 14 12 7 7 6 6 8 8 9 8 8 8 8 7
11 11 11 11 11 11 10 10 10 9 7 6 6 4 4 6 7 6 4 3 4 4 4 3 3 2 3 3 6 9 11 14 12 6 7 8 8 10 8 8 8 7 6
12 11 12 11 11 11 11 10 10 8 7 7 6 6 5 5 8 7 4 4 4 4 4 3 4 5 5 4 4 5 6 7 8 6 6 5 7 9 8 6 5 4 2
12 13 13 13 12 12 12 10 9 8 8 7 6 7 6 7 11 9 5 4 4 4 3 5 4 5 4 5 3 4 4 4 3 7 8 11 13 19 16 6 9 5 3
11 11 11 12 12 12 11 12 9 8 7 5 6 6 6 7 13 11 6 3 4 3 2 3 6 5 5 5 3 2 3 4 5 5 5 7 9 12 19 11 7 6 4
7 8 10 10 11 11 10 9 9 9 8 7 6 5 6 6 9 13 11 4 3 4 3 2 2 3 4 6 6 4 3 3 4 3 3 3 5 6 6 7 9 7 5
7 9 9 10 8 9 11 9 8 9 9 8 7 6 5 6 7 13 13 9 7 4 4 3 3 2 3 4 5 6 3 2 2 2 2 3 3 4 4 4 5 6 5
6 7 8 9 9 9 11 10 8 9 8 8 7 7 6 6 6 14 15 13 10 4 4 6 7 3 2 3 5 4 2 2 2 2 2 2 2 1 4 3 2 3 1
8 8 8 9 10 9 8 8 9 9 9 9 9 8 7 7 7 7 7 7 10 6 9 6 5 4 1 1 3 1 2 2 2 2 1 1 3 2 2 2 2 3 1
7 7 9 8 10 9 9 9 10 11 12 11 10 9 10 10 10 13 12 9 8 8 6 5 3 3 3 2 2 1 1 1 1 0 1 1 2 2 2 2 2 3 3
7 7 8 8 8 9 8 7 17 17 18 19 16 14 8 12 17 21 20 18 18 19 3 4 5 5 5 4 4 3 2 2 2 1 1 1 1 2 2 1 1 2 2
9 8 7 9 8 9 9 9 9 12 18 20 22 21 21 15 19 23 23 21 20 19 4 6 6 6 6 5 5 3 3 3 3 2 2 2 1 0 2 1 1 1 1
9 10 8 8 9 9 9 10 9 9 11 11 21 20 22 21 21 24 24 20 11 14 7 8 8 8 7 7 6 5 3 4 4 3 3 3 3 3 2 2 0 1 1
8 8 8 8 8 9 9 9 9 10 9 9 7 15 18 24 22 24 26 11 13 12 11 9 8 8 8 8 7 6 5 6 5 5 3 3 3 2 2 1 1 0 1
9 13 11 9 8 9 9 9 10 11 10 10 10 11 11 13 13 14 15 14 12 11 11 11 10 9 8 9 8 7 6 5 5 5 4 4 3 3 3 4 3 2 3
7 8 14 10 10 10 10 12 11 10 11 11 12 12 22 15 15 15 15 14 14 12 12 11 10 10 9 9 9 9 8 8 8 6 6 5 5 4 3 3 3 3 2
9 9 9 11 10 11 12 11 11 12 12 12 11 12 27 15 13 14 15 15 15 14 11 11 11 11 11 12 11 11 10 10 9 8 7 6 6 5 4 3 3 2 3
10 11 12 12 12 13 12 11 12 12 13 13 12 11 12 14 14 14 15 15 14 14 12 12 12 11 11 11 11 12 13 13 12 11 10 9 7 6 6 4 4 3 3
10 13 13 13 12 12 13 12 12 16 14 13 13 13 13 14 15 17 15 14 14 14 13 13 13 16 13 13 11 11 11 9 9 11 14 11 9 8 6 5 6 6 4
10 11 12 13 13 13 14 14 13 13 13 14 13 13 13 13 14 15 15 14 14 14 16 15 13 17 19 21 18 19 17 16 13 12 10 11 13 14 10 8 6 4 4
11 11 10 11 12 13 14 14 15 15 14 13 14 14 14 14 14 15 14 16 15 15 17 13 16 21 22 19 21 20 20 20 16 17 11 9 10 10 10 9 10 5 6
Wind_Direction
166 155 147 142 136 134 128 130 123 118 106 98 83 67 58 45 62 63 61 59 54 49 36 36 24 20 24 13 32 9 16 7 352 331 334 328 332 346 343 348 354 6 3
169 159 157 148 148 145 142 136 132 124 115 119 102 89 78 59 59 62 61 51 49 47 33 41 19 20 21 24 15 13 10 11 350 334 317 345 334 345 335 349 344 12 2
168 164 159 159 161 155 152 148 149 139 113 137 111 97 99 79 75 65 66 60 55 49 34 38 26 18 13 18 21 17 2 359 359 343 335 346 339 350 346 358 359 28 10
173 173 171 171 171 161 153 153 150 157 130 157 124 103 116 96 86 80 71 74 67 57 43 38 39 30 16 8 22 14 14 349 348 359 355 350 353 341 352 356 359 10 19
179 180 177 171 168 159 158 159 157 165 150 159 146 134 147 103 91 107 87 70 75 73 65 53 54 31 26 37 30 16 4 11 2 4 6 357 0 351 350 340 6 350 24
186 184 173 168 165 165 163 166 163 167 165 172 146 149 164 106 105 81 95 97 77 60 48 59 61 34 47 44 45 43 39 17 21 8 7 3 352 346 335 348 4 11 5
188 181 173 171 172 173 166 168 170 173 174 186 148 182 169 130 125 117 84 89 76 60 43 29 56 75 351 24 45 38 41 37 43 20 23 15 354 342 322 353 3 15 19
191 182 176 177 176 172 171 178 171 173 183 185 164 196 167 150 146 138 126 110 96 71 55 37 28 58 31 11 43 47 46 36 30 33 27 5 13 353 340 350 332 300 108
197 191 184 181 176 173 175 176 175 174 183 190 173 193 174 170 164 159 150 123 112 85 57 29 18 60 25 3 65 55 55 28 43 34 30 30 28 26 25 1 15 9 351
206 200 188 181 176 181 178 172 172 175 183 184 181 199 182 184 181 181 182 145 144 134 104 83 52 47 32 35 16 39 66 9 2 3 8 25 25 24 28 28 4 16 2
198 187 185 183 182 178 173 172 168 169 168 180 183 202 183 210 185 189 193 175 164 154 157 133 93 47 32 52 59 53 53 341 7 351 355 354 25 28 23 23 22 23 11
185 180 180 179 184 176 167 165 176 171 170 176 179 185 197 208 204 198 200 198 180 165 164 144 116 105 70 58 69 72 57 24 358 349 351 4 14 16 359 11 29 38 36
168 169 173 173 181 177 172 163 176 183 183 185 187 186 196 199 199 202 202 198 195 170 150 152 148 150 82 64 60 46 26 23 25 14 348 353 358 303 301 323 225 194 174
174 175 173 179 185 181 185 179 187 191 192 188 193 198 194 197 193 192 190 185 187 170 160 138 177 188 177 137 252 41 48 32 38 13 353 306 299 345 6 329 340 333 352
192 185 188 192 193 194 198 191 200 204 201 197 196 195 187 202 202 193 184 177 173 172 142 128 177 185 179 186 201 196 147 162 127 352 302 337 332 341 5 332 347 339 56
196 193 200 200 194 200 199 206 214 215 211 219 209 205 207 209 194 194 195 186 182 169 159 178 193 193 188 185 199 194 167 164 151 197 225 340 8 345 335 344 344 22 18
215 207 206 207 203 201 199 204 209 213 220 218 217 218 215 202 195 193 194 191 187 176 207 194 190 195 193 183 196 188 188 160 133 191 210 167 141 266 278 321 303 313 331
220 219 210 205 206 205 207 209 207 204 201 208 220 217 214 210 200 194 192 186 191 201 204 206 198 193 190 188 186 193 174 158 182 182 193 179 179 194 216 229 178 314 331
221 226 217 219 210 209 207 207 208 207 208 207 195 213 211 211 208 202 191 194 198 203 203 212 209 197 192 183 183 186 185 189 178 172 183 174 177 188 186 189 131 49 343
229 231 220 215 212 211 209 210 207 208 208 206 199 202 192 189 200 200 203 204 210 204 199 201 209 202 194 186 181 183 180 177 176 186 182 169 174 180 185 174 200 189 204
240 234 221 218 218 213 212 216 211 208 211 211 212 201 195 193 200 202 199 207 210 210 205 198 197 201 191 189 185 180 193 188 184 187 184 178 165 184 201 173 163 169 157
252 243 229 224 222 218 219 217 214 213 212 213 212 206 206 206 205 206 207 205 211 210 203 201 198 200 195 189 189 187 188 199 184 180 184 181 178 175 161 167 176 170 158
252 248 245 241 234 228 222 219 219 218 218 214 208 204 200 208 211 212 211 210 208 208 203 199 198 198 195 195 190 191 189 195 197 182 178 177 177 180 173 178 165 166 182
265 260 252 249 244 235 232 224 223 222 221 218 211 208 207 207 209 214 214 213 211 209 206 200 200 199 196 193 194 194 198 194 185 189 177 174 176 173 169 170 184 190 171
276 260 259 255 250 245 239 235 229 224 222 220 219 216 212 209 212 212 213 213 212 211 208 203 200 201 195 194 196 195 190 187 182 179 187 180 177 172 180 183 167 162 156
273 269 251 253 255 250 246 240 236 233 229 223 221 220 216 212 212 214 210 213 212 212 209 204 204 203 199 199 199 193 188 182 178 175 178 185 178 179 179 183 173 174 170